This is the latest recevied weather packets stored in our database for station/object DB2AG-13. If no packets are shown the sender has not sent any weather packets the latest 10 day(s).
| Time | Temp. | Humidity | Pressure | Rain* | Wind** | Luminosity | Snow |
|---|---|---|---|---|---|---|---|
| 1787599735 | 13.89° C | 56% | 1021.4 hPa | - | - | - | - |
| 1787599189 | 14.44° C | 56% | 1021.4 hPa | - | - | - | - |
| 1787598645 | 14.44° C | 55% | 1021.6 hPa | - | - | - | - |
| 1787598104 | 15° C | 54% | 1021.5 hPa | - | - | - | - |
| 1787597565 | 15° C | 53% | 1021.5 hPa | - | - | - | - |
| 1787597021 | 15.56° C | 52% | 1021.3 hPa | - | - | - | - |
| 1787596478 | 16.11° C | 51% | 1021.4 hPa | - | - | - | - |
| 1787594846 | 17.22° C | 48% | 1021.5 hPa | - | - | - | - |
| 1787594299 | 17.22° C | 47% | 1021.4 hPa | - | - | - | - |
| 1787593754 | 17.78° C | 46% | 1021.5 hPa | - | - | - | - |
| 1787593207 | 18.33° C | 45% | 1021.5 hPa | - | - | - | - |
| 1787592663 | 18.89° C | 44% | 1021.4 hPa | - | - | - | - |
| 1787592123 | 18.89° C | 43% | 1021.6 hPa | - | - | - | - |
| 1787591592 | 19.44° C | 42% | 1021.5 hPa | - | - | - | - |
| 1787591062 | 20° C | 42% | 1021.6 hPa | - | - | - | - |
| 1787590530 | 20° C | 42% | 1021.7 hPa | - | - | - | - |
| 1787590000 | 20° C | 41% | 1021.9 hPa | - | - | - | - |
| 1787589465 | 20° C | 41% | 1021.8 hPa | - | - | - | - |
| 1787588937 | 20.56° C | 40% | 1022 hPa | - | - | - | - |
| 1787588409 | 20.56° C | 39% | 1022.1 hPa | - | - | - | - |
| 1787587353 | 21.11° C | 38% | 1022.4 hPa | - | - | - | - |
| 1787586811 | 21.67° C | 38% | 1022.5 hPa | - | - | - | - |
| 1787586282 | 22.22° C | 38% | 1022.6 hPa | - | - | - | - |
| 1787585750 | 22.22° C | 38% | 1022.6 hPa | - | - | - | - |
| 1787585217 | 22.22° C | 38% | 1022.7 hPa | - | - | - | - |
* Rain since midnight (hover to see other rain measurements)
** Current wind speed in m/s (hover to see current wind gust speed)